Theta_e
336 336 339 339 338 337 336 336 337 338 340 341 341 340 339 336 335 334 337 338 336 334 334 336 333 335 336 334 332 334 335 339 339 340 341 342 343 341 339 340 344 346 346 346 346 344 344 344 344 344 343 343 343 341 342 341 342 341 339 337 335 334 333 336 337 337 334 332 335 335 336 338 339 339 337 337 336 337 338 338 339 338 338 338 339
337 336 338 338 336 335 335 336 337 336 338 339 339 340 339 337 335 333 335 338 337 336 335 336 338 336 334 332 333 334 335 335 337 340 341 342 343 344 346 346 346 346 345 345 345 344 343 342 343 343 343 342 342 342 342 340 341 340 339 336 337 333 334 336 336 336 331 329 328 329 332 334 336 336 334 334 336 335 336 336 337 335 336 337 338
334 336 337 336 336 334 333 335 337 338 339 339 340 340 340 339 337 335 336 335 336 336 338 339 340 341 338 336 336 335 338 339 339 341 342 343 346 346 347 347 345 344 343 343 345 343 343 343 342 342 342 341 340 340 341 341 340 340 339 336 334 335 335 338 338 336 328 332 333 329 325 324 328 331 332 333 333 334 334 334 335 336 335 336 337
331 333 333 334 333 333 334 335 337 338 337 338 339 339 338 337 338 336 333 335 336 337 335 337 339 341 337 334 338 338 337 340 341 342 343 343 343 345 344 345 343 343 343 342 342 343 344 342 342 341 341 341 340 339 340 338 340 339 339 338 337 332 332 333 338 338 334 331 325 325 326 325 317 320 323 330 334 333 332 333 335 334 335 336 336
331 332 332 331 331 332 333 335 338 337 336 337 338 338 339 339 339 336 333 334 335 333 334 335 334 333 335 336 337 337 338 338 339 338 341 341 342 343 342 343 342 341 342 341 339 340 341 342 342 342 341 342 340 337 337 338 338 338 338 338 337 334 331 333 335 337 337 336 330 325 324 320 321 324 324 325 331 333 331 333 334 333 334 335 335
331 331 332 331 330 331 332 333 334 335 336 338 339 339 339 339 338 336 334 336 335 333 335 335 333 332 331 330 330 330 330 334 333 334 336 337 338 342 342 342 341 340 339 339 337 338 339 342 343 341 342 341 339 337 337 338 338 337 338 339 337 337 334 331 332 336 337 337 338 335 334 323 325 326 325 317 329 332 331 333 333 334 333 333 335
330 332 332 329 329 329 330 332 333 334 336 338 339 339 339 338 335 335 336 335 333 334 335 334 334 333 334 333 333 332 331 334 336 338 338 338 341 341 340 342 340 340 340 339 339 339 339 340 342 341 340 341 340 339 338 339 338 338 338 338 335 335 335 330 331 332 335 337 337 337 338 337 333 327 321 322 319 325 330 332 332 332 332 333 334
330 332 330 329 329 329 329 333 333 334 336 337 337 337 338 337 336 335 336 335 335 333 334 332 333 334 334 335 334 337 333 335 338 339 341 341 340 339 339 339 339 339 339 338 338 338 338 339 340 340 340 340 339 339 340 339 339 339 339 338 336 335 334 331 329 331 329 331 335 334 336 337 335 333 329 325 323 320 322 329 331 331 332 333 333
330 329 328 328 328 330 331 333 335 335 337 336 336 336 338 337 336 336 335 335 335 334 334 335 335 334 334 338 337 338 338 337 337 338 338 339 338 337 337 336 338 339 337 338 338 337 337 337 337 337 337 335 335 335 340 340 340 340 339 338 337 335 335 333 333 330 332 331 332 332 330 330 332 334 333 331 326 322 321 323 324 330 329 328 329
328 329 327 328 330 330 332 333 333 328 331 335 336 336 336 335 334 334 334 335 336 336 338 336 335 339 334 339 338 338 337 335 335 336 337 336 336 336 336 335 336 337 338 337 337 336 336 336 335 335 336 334 332 332 332 333 334 334 336 338 339 337 337 335 334 333 334 335 332 331 328 328 328 329 330 329 328 328 323 322 324 325 321 324 327
326 326 327 328 330 332 332 331 333 331 334 335 334 334 334 334 334 333 334 335 337 337 337 338 338 335 339 339 338 336 335 334 333 334 334 334 334 334 334 334 334 334 336 337 336 335 337 336 335 334 335 335 332 332 332 331 332 333 334 335 336 337 336 337 335 332 332 332 333 332 331 327 325 325 327 328 328 326 324 324 325 325 322 321 324
326 326 326 327 329 331 332 332 334 335 336 335 333 333 334 333 332 332 332 334 336 336 337 335 335 339 340 341 338 337 335 333 334 333 333 333 333 331 332 333 332 334 334 334 336 336 337 336 336 335 333 334 333 334 333 331 332 332 333 334 334 338 339 338 337 335 333 331 333 332 329 330 330 329 329 330 328 326 327 324 323 322 322 323 323
325 325 326 328 329 331 332 333 334 334 332 333 332 333 333 332 332 330 331 334 334 336 337 337 339 339 340 340 340 338 337 336 335 334 333 332 332 332 331 330 330 330 331 332 335 336 334 334 334 332 332 333 334 332 331 333 333 332 333 333 334 337 338 338 336 336 335 332 331 332 331 331 331 332 333 331 331 330 328 323 322 323 318 319 321
324 325 326 327 330 330 331 331 332 332 332 331 332 332 332 331 332 332 332 335 336 336 336 337 338 339 340 339 338 338 339 338 334 334 334 333 333 332 331 330 329 331 332 332 333 334 333 333 334 334 333 333 332 332 333 334 333 330 331 332 335 338 338 338 336 337 337 335 335 333 334 332 333 334 334 333 331 329 326 325 323 323 323 319 321
323 323 324 326 329 330 330 331 331 331 332 332 332 332 332 331 332 332 333 334 334 334 335 336 338 339 339 340 339 339 338 335 334 335 335 333 331 330 330 330 329 330 329 333 333 334 335 335 335 334 332 331 331 332 332 332 332 329 330 333 333 334 336 337 335 336 336 336 336 335 334 335 333 333 333 333 331 330 329 326 323 319 318 318 316
322 323 324 327 329 330 330 332 330 330 331 332 331 332 333 332 331 332 333 333 335 335 335 334 334 336 337 338 337 337 336 335 334 336 336 333 331 330 331 330 330 330 332 333 335 334 333 333 331 330 330 330 331 330 330 329 330 329 329 331 330 330 333 332 330 333 334 335 336 336 334 332 335 334 334 332 330 331 331 327 323 320 316 313 316
321 322 325 327 328 329 330 330 331 331 330 331 332 333 333 332 331 331 333 334 334 334 336 335 335 333 336 336 336 335 334 334 334 336 335 334 332 331 331 331 333 332 332 333 334 334 333 331 328 329 330 329 329 329 328 328 329 328 328 329 328 329 329 327 328 328 331 333 335 335 334 334 334 336 334 333 334 333 329 326 324 320 319 315 313
322 324 326 326 328 328 329 329 331 331 331 332 333 334 334 333 332 332 333 333 333 334 335 335 334 334 335 336 336 335 333 333 334 333 333 332 333 333 333 331 330 331 332 333 333 333 331 328 327 329 329 329 329 328 325 325 327 326 327 326 327 328 327 327 327 327 330 333 334 335 335 333 336 335 334 336 335 333 326 325 323 323 322 317 315
322 323 324 326 327 328 329 329 330 332 332 333 333 334 334 333 332 332 332 333 333 334 336 336 335 334 335 336 335 334 333 333 334 334 334 332 333 332 331 330 332 331 330 332 332 331 329 328 328 327 327 328 328 329 327 326 325 325 324 324 326 326 324 324 327 329 330 332 334 334 335 334 336 336 336 335 335 329 324 322 321 322 322 321 319
321 322 324 325 326 328 328 329 329 330 332 332 333 333 333 333 334 335 334 333 332 333 334 335 335 334 335 336 335 334 333 332 333 334 334 333 332 331 331 331 331 329 331 331 330 328 328 328 326 326 325 325 325 327 328 326 326 325 325 323 324 324 321 323 324 327 325 329 332 332 331 332 335 334 334 333 331 327 326 322 321 321 321 321 318
321 323 323 324 326 328 329 329 329 330 330 331 331 331 330 332 332 334 334 333 332 333 334 335 334 334 335 335 335 334 334 332 333 334 333 332 332 332 330 330 329 329 331 330 329 327 326 326 326 324 323 323 323 326 328 327 325 325 324 323 322 321 320 322 323 325 326 326 326 329 331 332 335 333 331 330 327 326 325 324 323 320 319 321 318
320 321 322 322 324 324 326 328 329 329 329 331 330 330 329 331 331 333 333 333 332 332 333 334 334 335 335 335 336 335 334 332 333 333 332 331 331 331 331 329 327 329 330 328 327 327 326 326 324 323 322 322 323 325 327 326 324 324 323 322 321 321 321 322 323 322 325 325 328 325 327 331 332 329 329 325 325 323 322 321 321 322 320 320 322
316 318 320 323 323 323 324 327 327 327 329 330 329 329 329 330 329 333 332 332 333 333 334 334 334 335 336 336 336 334 333 333 333 332 331 330 331 331 330 328 327 327 329 328 327 328 326 325 324 323 321 321 323 324 326 325 323 322 320 322 323 322 322 322 321 321 321 324 324 326 327 330 330 328 326 325 326 323 322 320 321 322 321 322 320
315 316 317 319 322 323 323 323 324 325 326 326 326 325 327 330 330 331 330 332 332 333 334 335 334 335 336 336 335 334 333 332 332 331 331 331 331 330 328 327 327 327 325 327 328 326 326 325 324 322 321 321 322 324 324 323 322 321 321 322 322 323 323 322 321 320 320 322 323 324 325 328 328 327 325 325 325 325 323 322 322 323 324 323 323
313 314 315 317 319 320 321 322 323 323 321 322 322 324 324 325 326 327 325 326 330 332 334 334 334 335 336 335 334 334 333 332 331 330 331 331 331 329 328 327 327 326 326 327 326 326 325 324 324 321 320 321 321 322 323 323 324 324 323 322 322 322 323 322 322 321 324 322 322 322 323 325 326 326 326 324 324 324 323 323 322 321 321 323 324
311 312 313 314 315 317 320 321 322 322 321 322 321 322 323 324 325 326 323 323 324 326 330 332 333 333 333 332 332 331 329 330 331 331 331 330 329 329 328 328 327 325 326 324 324 324 325 324 322 321 321 320 321 322 322 322 323 324 325 324 323 323 322 321 322 322 322 322 322 322 322 323 323 324 324 325 325 324 322 321 321 320 319 321 324
309 310 312 313 313 315 317 319 320 321 321 320 320 321 322 324 324 324 324 323 323 323 326 327 330 330 326 325 325 326 328 326 327 331 332 329 328 329 327 326 325 325 325 324 323 322 324 322 322 322 321 321 321 322 322 323 323 323 323 323 324 324 323 324 324 323 324 324 323 322 322 323 322 323 323 323 324 324 323 322 321 322 321 321 323
308 309 309 308 309 311 312 313 316 317 318 318 319 320 322 322 320 321 323 324 324 325 325 326 326 324 322 323 324 324 326 325 323 324 325 328 329 328 327 326 324 325 324 323 322 322 324 323 323 321 321 323 324 324 324 323 323 324 324 325 324 325 324 325 326 326 326 326 326 326 325 324 323 323 324 324 324 323 323 322 323 324 322 322 322
304 305 306 307 307 307 309 310 312 314 313 313 314 318 321 321 320 319 320 322 325 325 323 323 324 325 325 325 322 323 324 323 323 322 322 322 325 327 327 326 325 325 325 323 322 322 322 323 322 322 321 323 325 325 325 325 325 323 326 326 326 325 326 325 325 326 327 327 326 327 327 327 333 324 313 316 317 317 328 323 324 324 323 322 322
301 303 304 304 304 305 307 307 308 308 310 311 312 313 314 317 319 320 320 321 324 322 322 322 321 321 323 324 323 325 323 323 323 323 324 324 324 325 324 325 325 325 325 324 323 323 322 322 322 324 326 326 326 328 323 306 309 326 326 326 327 327 326 326 326 326 327 327 327 328 328 323 316 315 313 307 305 305 308 320 328 326 323 322 321
302 303 303 302 302 303 304 305 305 307 308 309 310 310 311 311 312 314 316 319 322 322 322 321 321 320 322 323 323 322 322 322 323 323 323 321 321 323 323 322 323 324 325 325 325 323 323 323 322 323 323 325 327 327 298 298 300 302 324 328 327 327 328 327 327 326 327 328 329 328 331 328 323 319 320 301 301 302 302 301 300 303 310 327 323
300 301 302 301 299 300 301 302 304 306 306 307 306 306 307 307 308 309 311 313 316 318 320 320 320 320 321 322 322 322 320 321 321 322 322 321 320 319 319 320 321 322 323 325 324 324 324 325 325 324 325 326 328 304 297 298 299 299 302 325 330 330 329 329 329 328 329 330 330 331 331 332 330 328 328 326 311 301 299 299 299 300 302 299 300
300 300 300 300 298 298 299 300 301 303 303 304 305 304 303 305 306 307 309 309 308 310 312 316 319 319 319 321 320 320 320 320 321 321 320 319 318 315 316 319 321 322 324 323 322 322 321 323 324 323 324 326 328 296 297 295 297 298 299 308 329 330 329 329 329 329 329 329 330 330 331 331 329 324 325 327 328 323 301 295 298 297 297 298 298
298 299 299 299 299 298 298 299 299 300 302 303 305 303 303 303 304 306 306 306 306 307 308 307 308 313 319 321 321 320 320 320 321 321 320 319 319 319 322 322 322 322 322 322 322 323 323 322 322 324 324 326 326 298 294 294 296 295 296 302 328 331 331 330 330 330 330 330 330 330 328 329 330 331 329 327 327 328 326 321 320 321 322 311 293
296 296 297 297 298 298 298 299 299 299 300 301 302 303 303 303 303 303 305 305 303 303 304 305 306 308 314 318 320 320 320 320 321 320 320 319 319 320 320 321 322 321 321 320 322 322 322 322 323 324 325 324 311 293 294 294 294 295 295 298 328 330 330 330 331 332 332 331 331 331 331 329 328 329 330 326 327 327 326 324 323 323 324 324 324
295 295 296 296 297 297 298 298 299 298 298 299 300 302 302 302 303 303 303 303 303 302 302 303 303 304 306 309 312 314 316 318 320 319 319 319 319 319 320 320 321 322 322 322 322 323 321 323 323 323 324 320 307 292 293 293 293 295 293 319 327 328 327 327 328 330 330 330 330 330 329 328 329 328 318 307 313 325 323 322 321 322 322 323 319
297 297 297 298 298 298 298 299 299 299 298 298 299 299 300 300 300 301 302 302 301 301 301 303 303 303 304 305 306 307 309 311 315 317 317 317 317 319 321 322 322 322 321 321 322 322 322 323 322 323 323 319 310 296 292 293 294 292 298 324 326 326 326 326 326 327 328 328 328 327 328 328 328 328 312 300 301 304 322 321 320 320 320 321 317
297 297 297 298 299 298 298 298 298 299 300 299 299 299 298 298 298 299 300 300 300 299 299 300 301 303 304 305 305 306 307 308 311 315 315 316 317 318 319 321 321 320 320 320 321 320 321 322 322 321 320 321 313 298 292 292 292 292 298 321 325 325 326 326 325 326 326 326 326 322 322 325 326 330 296 297 297 307 321 321 320 319 318 318 315
296 296 295 296 297 297 297 297 297 298 299 299 300 300 298 297 298 298 298 299 299 299 299 299 300 302 303 304 305 305 306 306 307 308 311 311 311 310 311 315 317 319 319 320 320 319 320 320 320 319 312 320 317 303 292 292 291 292 303 322 322 324 323 324 324 325 327 326 327 320 311 315 321 314 292 295 294 305 321 322 320 320 318 317 316
295 296 297 297 296 296 295 295 295 297 299 300 300 299 298 298 298 298 297 297 299 300 301 301 301 302 302 303 304 304 304 304 305 307 308 309 310 311 311 311 311 312 312 313 315 316 314 314 316 317 317 319 316 310 299 290 292 293 292 308 322 322 322 323 324 323 324 325 325 326 315 297 295 297 293 292 293 295 316 322 322 320 318 317 317
294 294 295 296 296 295 294 295 295 297 298 299 299 298 297 297 298 297 297 298 299 301 301 301 302 302 302 303 304 305 305 305 305 306 307 307 308 308 308 308 308 308 309 309 310 311 311 311 312 312 310 310 311 310 301 290 291 291 290 294 318 317 317 318 318 318 320 321 321 322 320 295 295 297 294 292 292 292 295 312 320 320 320 322 312
294 295 295 295 295 295 295 295 296 297 297 297 297 296 296 297 297 297 298 299 299 299 299 299 299 300 301 302 304 305 306 306 307 307 307 307 308 309 309 308 307 307 308 308 309 310 310 308 308 309 310 308 305 301 308 293 290 291 290 287 308 312 307 313 315 317 317 318 319 319 319 300 294 295 293 292 292 292 292 302 312 293 294 297 315
293 293 294 295 294 294 294 294 295 296 297 297 297 295 295 296 296 297 299 298 299 299 299 299 298 298 299 300 302 303 304 305 306 306 306 306 307 307 308 310 310 309 308 308 309 309 309 309 308 308 309 309 308 305 295 301 289 290 288 290 287 296 292 307 316 316 316 316 317 318 310 292 294 292 292 291 292 291 293 304 293 291 293 296 304
294 295 295 296 295 295 294 294 295 296 296 296 296 294 294 295 295 298 299 300 301 301 300 298 297 297 297 297 298 298 300 301 302 303 304 304 304 304 304 305 306 307 306 306 306 307 307 306 305 306 309 309 310 309 297 294 298 289 290 289 289 288 288 303 308 313 314 314 314 313 305 292 293 292 291 291 291 292 305 293 292 293 291 295 311
294 294 296 296 296 296 296 296 297 297 297 296 296 295 294 294 296 298 298 299 299 300 300 299 299 299 299 298 298 299 299 300 300 300 299 299 300 301 301 303 304 303 303 303 303 304 305 305 304 304 305 306 308 309 309 300 293 293 292 292 292 290 291 288 307 313 311 310 297 290 290 291 292 290 289 289 290 291 290 290 290 290 295 308 308
295 296 296 296 296 297 297 297 297 297 297 297 297 296 295 295 297 298 298 299 299 298 298 299 299 300 300 300 301 300 300 301 301 301 301 302 301 300 300 301 301 301 301 301 300 300 301 302 302 302 302 302 304 305 306 306 301 300 298 295 294 292 293 292 294 301 290 288 287 289 287 288 289 293 302 307 310 305 290 290 289 294 305 306 306
295 296 296 297 296 296 296 296 296 297 298 298 298 297 297 297 297 298 299 299 298 298 298 299 299 300 300 300 300 300 300 301 302 302 302 302 301 301 301 299 299 299 300 299 299 299 300 299 300 300 300 301 302 302 302 301 301 301 301 301 302 302 294 292 301 307 298 303 301 298 297 291 292 289 292 294 296 292 295 298 302 305 306 306 306
296 296 296 296 296 296 296 296 296 296 297 297 297 297 297 298 298 298 298 298 297 298 298 299 300 300 299 299 298 292 296 299 299 300 300 300 300 300 299 298 299 299 300 300 300 298 298 299 299 300 300 301 301 301 300 298 298 297 297 298 300 302 304 304 304 305 306 306 302 291 293 298 298 300 299 300 299 301 303 302 305 306 306 305 302
294 295 296 296 295 295 296 295 296 297 297 296 296 297 297 297 297 298 298 297 297 297 299 300 300 299 298 298 299 299 299 298 297 297 296 295 297 300 299 297 296 296 295 297 299 299 298 299 299 299 298 299 300 300 298 290 292 289 290 295 298 300 301 302 297 290 300 305 303 302 301 300 299 296 296 297 299 299 299 303 305 306 304 301 301
296 296 297 296 297 296 296 295 296 296 296 296 296 297 297 297 297 298 298 297 298 299 299 298 298 298 298 298 299 298 299 298 299 297 296 294 287 287 292 297 295 289 287 287 288 294 295 297 299 301 300 297 298 298 289 288 288 288 288 288 289 289 289 293 292 288 292 301 300 301 299 300 299 299 298 297 298 299 297 299 300 298 302 302 302
295 296 296 296 296 296 296 296 296 296 296 296 296 296 296 297 297 298 298 299 299 299 298 297 296 296 296 298 298 298 298 298 299 299 299 297 295 293 287 286 288 288 288 287 288 287 287 287 292 297 297 290 289 288 288 288 287 288 288 288 289 289 289 289 288 292 296 299 300 300 301 301 301 303 300 300 298 300 299 300 302 300 303 302 299
Wind_Speed
11 11 9 8 8 7 6 6 7 7 8 10 11 12 11 10 11 12 10 11 11 10 8 8 8 6 5 5 5 6 5 5 5 5 5 5 6 8 10 8 9 7 6 6 6 5 4 4 5 4 4 3 3 4 4 4 3 4 4 4 6 6 5 5 6 6 6 6 5 5 5 4 4 4 3 3 5 5 2 3 3 2 3 3 4
10 10 10 9 8 9 8 7 7 8 8 9 10 12 12 11 11 10 8 9 10 10 8 8 8 9 7 6 7 7 7 7 7 6 6 6 6 5 5 5 6 6 5 5 5 5 5 5 4 4 3 4 3 3 3 4 4 4 4 5 4 5 5 5 5 6 5 4 5 5 5 4 3 3 3 4 3 6 4 3 2 2 2 2 3
11 12 11 8 8 9 8 7 7 7 8 9 9 10 13 13 12 10 7 8 8 9 8 7 7 7 7 6 7 7 7 6 6 6 6 7 7 6 5 5 5 5 5 6 4 5 5 4 4 3 4 3 4 4 5 4 4 5 5 4 5 4 4 4 5 4 2 4 4 5 5 6 2 0 2 3 4 4 5 5 3 3 3 3 2
14 12 11 10 9 9 9 8 7 7 7 8 9 9 9 9 11 10 9 9 8 8 8 7 6 6 6 6 6 6 6 7 6 6 6 7 7 5 5 4 5 5 6 6 5 5 5 4 4 4 4 4 4 4 4 5 5 5 5 4 4 5 4 5 3 2 3 5 6 4 4 5 7 5 4 3 4 4 4 5 4 3 3 3 3
12 11 10 10 10 10 9 7 7 7 7 7 8 9 8 9 10 12 9 7 7 6 10 9 8 4 5 7 6 6 6 6 6 6 6 6 5 6 5 5 5 5 5 6 5 5 5 4 4 4 4 4 4 4 4 4 5 5 5 4 5 3 4 4 3 2 2 2 2 3 4 4 3 6 6 4 3 3 4 4 4 4 4 3 2
13 12 10 10 9 8 7 7 6 6 6 7 7 8 8 9 9 11 10 11 10 11 10 10 8 9 9 9 9 8 9 8 7 7 7 6 6 5 6 6 6 5 5 5 4 4 5 5 5 5 5 4 4 3 3 4 5 4 5 4 4 3 3 5 5 3 2 2 2 2 4 3 0 6 5 4 1 4 4 4 4 4 3 3 3
11 11 10 9 8 8 8 7 8 7 6 6 6 7 8 10 10 9 8 8 10 10 9 6 9 10 11 10 9 8 8 6 6 6 6 6 6 6 6 6 6 6 5 5 5 5 5 5 5 5 5 5 5 4 4 5 4 4 3 4 4 4 3 4 4 5 4 2 2 1 2 2 0 6 4 7 6 3 4 4 4 3 3 4 3
9 11 11 9 9 9 9 9 9 7 6 7 6 6 8 10 10 9 7 8 10 10 7 6 6 7 10 8 7 7 7 7 7 7 6 6 6 7 6 6 6 5 5 5 5 5 5 5 5 5 4 4 5 4 4 4 3 4 2 3 2 2 3 3 5 4 5 4 3 3 3 2 3 3 0 7 5 6 5 4 6 5 4 5 4
11 11 11 10 10 8 7 7 5 4 6 8 7 7 7 8 7 7 7 8 10 13 11 12 9 9 7 8 8 6 7 7 6 6 7 7 8 7 6 6 6 5 5 5 5 5 5 5 5 5 5 4 4 4 4 4 4 4 5 3 3 3 3 1 1 4 5 5 5 5 5 4 4 3 2 4 4 7 7 7 6 6 6 5 4
8 8 11 10 10 10 9 10 9 8 3 5 8 8 7 7 7 7 7 6 8 9 7 9 10 8 10 7 7 7 7 7 7 7 7 8 8 7 6 6 6 5 5 5 5 5 5 5 5 4 3 3 3 2 3 4 3 3 3 3 3 3 3 4 3 1 4 2 5 3 5 5 4 4 4 4 3 3 5 8 7 7 6 4 4
10 10 11 10 10 11 11 11 12 13 11 10 9 9 9 9 8 8 7 6 6 7 7 7 7 8 6 6 8 8 9 9 8 9 8 8 7 7 6 6 5 5 5 5 4 5 4 4 4 4 3 2 2 3 3 2 3 2 2 3 4 4 3 4 4 7 5 5 5 3 3 3 4 4 5 4 4 4 6 7 7 5 6 6 4
9 9 10 10 11 13 13 14 14 13 12 12 10 10 10 9 9 9 8 6 6 7 8 7 8 6 6 7 8 9 9 9 9 10 9 9 8 8 7 6 6 6 6 6 5 5 4 4 4 4 4 3 2 1 0 1 1 1 2 3 3 4 4 4 4 4 4 6 5 5 7 7 2 3 4 4 4 4 5 7 7 6 6 5 6
10 9 9 11 11 12 12 13 12 11 10 11 11 10 9 10 11 11 10 10 10 11 12 12 10 9 7 9 10 9 10 9 9 9 8 8 8 8 8 7 7 7 6 6 5 5 5 5 5 4 4 4 3 2 1 0 0 1 2 3 4 4 4 4 4 3 4 3 4 3 4 3 3 1 3 4 3 4 5 7 7 7 7 7 7
9 10 11 10 10 11 11 12 11 10 12 11 10 10 10 11 13 14 14 13 12 11 11 11 10 8 7 7 9 9 9 9 8 8 8 8 8 8 8 7 7 7 6 6 6 6 5 5 5 4 4 4 3 2 2 2 1 2 3 4 4 3 3 3 3 4 4 4 3 4 4 3 2 2 3 3 4 5 6 6 7 7 8 8 8
8 9 9 9 10 10 10 10 10 10 12 11 11 11 11 12 12 13 13 12 11 11 9 9 7 7 7 6 7 7 8 8 7 7 8 8 7 8 6 6 6 6 7 6 7 6 6 5 4 4 4 4 4 4 3 2 2 1 4 4 4 3 4 2 3 4 3 4 3 3 3 2 3 3 3 4 4 4 5 7 7 9 7 6 7
8 8 8 9 10 9 8 7 8 10 12 11 11 12 11 12 11 12 13 13 11 10 8 7 7 6 7 7 7 8 7 7 6 6 7 7 8 7 6 6 6 6 6 6 6 6 6 5 4 4 5 5 5 4 4 4 3 3 4 3 3 2 3 4 4 3 2 3 3 2 3 4 3 3 4 3 3 4 5 5 4 5 7 8 7
8 8 8 10 8 8 9 8 8 9 11 12 13 12 12 12 12 12 12 11 9 10 8 9 7 7 7 7 7 8 8 7 7 8 7 6 7 7 7 6 6 6 6 6 6 6 6 5 5 6 6 5 5 4 4 4 4 4 5 5 5 4 4 4 3 3 3 3 3 4 3 4 4 3 3 4 3 3 5 4 3 4 5 6 7
8 8 9 9 8 7 7 8 7 9 10 12 14 12 10 10 11 11 10 10 9 10 9 9 9 9 9 9 9 9 8 8 8 9 8 7 7 7 7 6 6 6 6 5 6 7 6 6 5 6 6 6 5 5 5 5 5 5 5 5 5 5 4 3 2 3 2 2 3 4 3 4 4 4 4 3 4 4 5 4 4 4 5 6 6
8 8 8 7 6 7 6 8 9 10 11 11 12 12 11 10 11 11 12 12 11 10 9 7 8 8 7 8 10 9 8 7 8 9 8 8 8 8 7 7 6 7 7 7 7 8 7 6 6 6 5 5 5 5 5 5 5 6 5 6 5 4 4 4 3 2 2 2 4 4 4 5 5 5 5 5 6 6 5 4 3 4 3 3 4
8 7 6 6 5 5 6 7 9 9 9 8 10 11 11 10 12 11 11 12 12 11 10 9 9 8 7 8 10 9 9 8 8 9 8 7 6 7 7 7 7 6 7 8 8 8 8 7 6 5 5 5 5 6 6 6 5 5 5 5 4 4 5 5 4 3 3 4 4 5 5 5 5 6 6 6 7 6 4 5 5 5 4 3 3
7 6 6 5 4 4 4 5 6 9 7 7 8 8 6 8 10 11 12 12 12 12 12 11 10 9 10 10 10 10 10 9 9 10 9 9 8 7 7 6 6 6 7 8 8 8 8 7 7 6 6 5 6 6 6 6 6 5 4 4 5 5 6 5 5 4 4 5 5 6 6 6 5 6 7 7 7 7 4 3 4 4 5 3 3
7 7 6 5 5 4 4 3 5 5 7 8 8 8 9 11 10 10 10 10 11 12 12 11 11 9 11 10 11 10 10 9 10 10 10 10 9 8 7 6 6 6 8 9 9 8 8 8 7 7 7 7 7 7 7 6 6 6 5 3 5 5 5 5 4 5 5 3 5 6 6 7 6 7 7 7 7 7 6 5 4 2 3 4 1
8 7 5 3 4 5 3 2 3 4 4 4 7 7 9 8 8 8 10 11 10 9 10 10 10 10 11 10 10 9 10 10 10 9 10 10 9 9 8 8 7 7 7 8 8 8 8 8 7 7 7 7 7 7 6 6 6 6 6 5 5 6 5 5 5 5 6 5 5 6 7 6 5 6 6 6 6 6 5 4 5 3 3 2 2
8 8 7 7 4 3 5 5 4 3 2 1 1 2 6 5 7 7 9 9 8 8 8 8 9 9 10 9 9 9 10 10 10 9 10 10 9 9 8 8 8 7 7 7 7 8 8 7 7 7 7 7 8 7 7 6 7 6 6 7 6 5 5 5 4 5 5 5 5 5 5 5 6 6 5 5 4 2 2 2 2 4 1 2 1
8 7 7 7 7 6 6 5 5 4 2 4 6 6 5 3 3 3 7 6 1 6 6 7 7 8 9 8 8 8 8 9 9 9 10 10 9 9 8 8 8 7 7 6 7 7 7 7 7 7 8 7 8 8 7 7 6 5 6 6 6 5 5 5 4 4 3 4 4 4 4 4 4 4 4 4 4 3 3 2 2 2 3 4 4
6 7 8 9 9 8 7 6 7 7 6 6 6 5 1 1 2 3 4 4 4 4 5 6 6 7 6 5 4 5 3 2 7 7 9 9 8 9 8 7 8 8 7 7 7 6 6 7 7 7 7 7 7 7 7 7 7 6 6 5 5 5 5 5 4 4 4 3 3 4 3 3 3 3 3 3 3 5 5 5 5 5 4 5 5
7 8 8 9 11 11 11 10 8 9 10 6 4 4 2 2 5 6 6 5 4 4 1 7 4 4 7 9 8 6 4 5 5 3 4 7 7 8 9 8 7 7 7 6 6 7 7 6 7 6 7 7 7 7 7 7 7 7 7 6 5 5 4 4 3 4 3 3 3 3 3 2 3 3 3 3 4 4 4 4 4 4 5 3 5
8 10 11 11 11 11 11 10 11 10 10 6 5 4 4 3 4 4 4 5 4 4 5 5 7 7 8 9 9 8 6 5 7 5 3 2 5 7 7 7 7 6 6 6 7 7 6 5 4 5 6 6 6 6 6 7 7 6 5 5 5 4 4 4 3 3 3 3 3 3 3 2 2 3 2 3 4 4 4 4 3 4 4 4 5
11 11 11 11 11 11 11 10 10 11 12 11 9 7 5 7 6 7 7 7 5 4 5 7 7 8 8 5 5 4 5 5 4 4 5 3 4 5 5 5 6 6 4 5 6 6 7 5 3 3 5 5 5 4 5 5 6 5 4 5 4 4 3 4 3 3 3 3 2 2 2 1 5 7 8 7 7 7 4 4 3 3 4 5 6
11 11 11 11 11 11 10 11 11 11 11 10 9 9 9 9 8 9 9 7 6 7 7 8 8 8 7 7 8 8 7 7 7 6 7 6 5 4 5 5 4 4 4 4 5 5 5 4 4 2 3 3 3 3 5 8 9 1 5 3 4 4 4 4 4 4 3 3 3 2 2 6 3 2 2 3 4 6 7 5 5 4 5 6 6
12 11 11 11 11 11 11 11 10 10 10 10 10 9 9 11 10 9 8 7 5 7 8 8 9 8 8 9 9 9 9 7 7 8 6 6 7 5 4 5 5 4 4 3 3 5 5 4 3 3 4 3 3 3 5 5 5 10 5 4 4 4 4 4 4 4 4 4 4 4 3 5 3 4 4 2 3 3 5 7 8 7 6 5 6
10 11 11 12 12 12 12 11 11 11 12 11 9 9 10 10 9 9 8 9 10 10 8 8 9 8 8 8 6 5 7 6 6 7 6 6 6 6 4 4 3 4 3 3 2 1 2 3 2 2 3 2 2 6 4 4 3 3 6 4 4 4 4 4 5 5 5 5 5 4 4 3 5 6 6 6 5 4 3 4 4 5 7 5 2
12 12 12 12 11 11 11 10 10 10 11 11 9 10 10 9 10 8 8 10 11 10 10 9 8 7 8 8 9 8 8 7 8 8 6 5 6 8 2 0 3 3 3 3 2 1 2 2 3 3 3 3 2 5 4 5 4 2 3 6 5 4 5 6 5 6 6 5 5 4 5 4 4 6 5 7 7 6 5 2 2 4 4 4 6
12 12 12 12 10 9 10 11 12 11 10 9 11 11 9 8 9 10 11 11 11 10 10 9 8 7 6 7 8 9 9 7 7 8 8 8 6 7 6 4 4 3 3 3 3 4 3 3 3 3 3 3 4 4 3 4 4 3 2 4 5 4 4 5 5 6 5 5 5 5 5 6 6 6 6 8 8 7 5 6 7 7 8 6 4
13 12 12 12 11 11 11 12 12 11 10 10 10 10 9 10 10 11 11 12 11 12 11 9 9 9 9 9 7 7 8 8 7 8 7 6 6 6 6 4 4 4 4 4 4 4 3 3 3 3 4 4 4 5 6 5 5 3 2 5 5 4 5 5 5 4 5 5 5 5 6 7 7 6 6 5 7 7 8 8 9 9 10 8 7
11 11 11 11 12 11 10 10 9 10 11 11 11 9 11 11 11 12 12 12 12 12 11 10 10 10 10 8 8 8 8 7 8 8 8 6 6 6 6 5 5 4 4 4 3 3 3 3 2 2 3 6 4 4 2 3 4 3 4 5 5 5 6 6 6 6 5 5 5 6 6 6 7 8 3 6 6 8 9 10 10 10 9 5 2
12 11 12 11 11 11 10 9 10 10 10 10 10 10 11 12 12 12 13 13 13 13 12 11 11 10 9 9 8 8 8 8 8 9 8 8 6 5 5 4 4 4 5 4 4 3 3 4 3 3 3 7 5 4 2 2 2 2 5 4 3 4 5 5 6 6 5 5 5 6 6 6 6 7 7 10 8 7 10 11 11 10 8 6 3
10 8 10 10 10 10 11 10 10 12 11 9 9 10 12 13 13 12 13 13 13 13 11 10 10 10 10 10 10 9 9 8 8 9 8 7 6 6 6 5 5 4 4 4 4 3 4 3 3 5 6 5 7 4 3 1 2 3 6 4 4 4 5 5 5 5 5 4 5 4 3 7 7 5 10 9 9 8 10 10 10 9 9 8 4
11 10 9 9 9 10 9 9 10 13 12 10 10 10 12 12 11 11 12 12 13 11 10 10 10 9 9 9 9 9 10 9 9 8 7 8 7 6 5 5 6 6 6 5 4 5 5 4 5 6 4 4 7 6 4 3 3 4 6 4 5 5 6 6 5 5 5 5 4 8 9 8 7 5 7 9 11 10 10 10 10 9 10 10 6
9 10 10 9 7 7 9 10 11 11 10 11 10 11 13 12 10 10 11 11 10 10 9 9 9 9 9 9 8 9 8 8 8 8 7 7 6 7 7 6 6 6 6 6 5 6 7 5 5 6 6 6 7 6 4 3 4 4 6 6 3 5 5 5 4 4 4 4 4 5 9 8 4 4 2 5 8 10 10 10 8 7 8 10 7
9 9 8 9 9 9 9 10 8 9 9 10 9 10 12 10 10 10 11 9 8 8 9 8 8 9 9 9 8 8 8 7 6 6 6 6 6 6 7 7 7 6 7 6 8 6 6 6 6 6 8 7 6 5 5 6 6 6 7 7 2 4 5 4 4 5 5 5 5 3 9 6 1 1 3 4 6 8 9 8 9 7 7 6 9
8 8 8 8 8 10 10 10 9 9 9 9 9 10 10 10 10 11 10 8 8 8 8 8 9 9 8 8 9 8 7 6 6 6 6 7 6 5 4 5 5 6 7 7 6 5 5 5 5 5 6 7 10 11 4 6 6 6 7 9 5 5 5 3 2 3 4 4 2 3 3 6 2 3 4 4 5 5 6 6 6 10 4 11 9
9 9 8 8 9 10 9 9 8 9 9 8 9 10 9 9 10 9 7 7 6 7 8 8 8 8 8 8 8 9 8 6 7 7 7 7 6 6 6 5 5 6 6 6 5 4 4 4 4 5 5 6 7 7 7 5 6 5 4 4 5 6 7 6 4 3 2 2 1 2 6 4 2 4 6 7 7 6 2 4 5 6 4 7 7
10 9 8 9 10 9 9 8 8 7 7 7 8 8 8 9 9 6 6 5 5 5 6 6 6 6 7 7 8 8 8 7 8 7 7 8 7 6 6 6 5 4 4 5 4 3 3 3 3 4 4 4 4 5 7 7 6 5 4 3 4 4 6 5 6 4 3 3 3 5 6 5 2 4 6 8 8 8 6 6 4 4 5 7 7
7 6 6 7 8 8 8 8 7 7 7 7 7 7 8 8 7 6 6 5 5 5 5 5 5 5 5 5 6 6 6 6 6 7 7 7 7 7 6 6 5 5 5 4 4 3 3 3 3 3 3 3 3 3 3 7 5 4 4 6 5 6 6 5 5 3 5 5 6 4 2 2 2 3 3 4 5 6 6 7 7 7 4 2 1
6 7 6 6 7 7 7 8 8 8 7 7 6 6 8 7 5 5 5 5 5 5 5 5 5 5 6 5 6 6 7 6 6 5 6 6 6 6 6 6 6 6 5 5 5 4 4 4 3 3 3 3 3 3 3 4 4 6 2 3 4 4 4 4 6 5 5 2 3 2 1 2 4 4 4 5 4 4 8 9 11 11 7 6 4
7 6 4 5 5 6 7 8 8 8 7 7 7 7 6 6 6 5 5 4 4 4 4 4 5 6 7 7 6 6 6 6 6 6 6 6 6 6 6 6 6 5 5 4 5 4 4 4 4 3 3 3 3 3 5 5 6 6 6 7 5 3 5 6 5 2 4 3 3 2 3 5 6 7 7 8 6 6 3 4 6 7 8 9 9
6 5 5 5 6 6 6 6 7 7 7 7 7 7 7 6 5 5 4 4 4 4 4 5 6 5 5 6 7 3 4 7 7 6 6 6 6 7 7 8 7 7 5 5 5 5 5 4 4 4 4 3 3 3 5 7 7 7 7 7 6 5 5 5 5 5 6 5 2 2 2 2 2 1 1 1 1 3 4 5 5 5 6 5 6
5 5 5 5 5 6 6 6 6 5 5 5 5 5 5 5 4 4 3 3 4 4 5 5 5 6 6 6 5 6 6 6 7 8 8 8 7 6 6 8 9 8 7 6 5 4 5 5 4 4 4 4 4 4 6 8 8 8 6 7 7 6 6 6 5 7 7 5 4 4 4 3 4 2 2 2 2 3 3 5 6 7 5 5 5
5 4 5 6 6 6 5 5 5 4 5 4 4 4 4 4 4 3 3 3 3 4 5 5 5 5 5 5 5 6 6 5 5 6 7 8 10 12 11 6 7 7 7 9 9 6 6 6 5 3 4 5 5 6 11 12 12 12 11 9 10 11 10 9 9 9 7 4 3 3 3 3 3 2 2 3 2 3 3 3 4 6 5 7 8
4 4 5 6 6 5 6 5 5 4 4 4 4 4 4 4 3 3 3 3 3 4 5 5 6 6 6 5 6 6 6 6 5 4 4 6 7 8 9 9 7 3 3 2 2 2 2 6 7 6 3 6 0 5 9 11 12 12 11 10 10 9 9 9 7 3 4 4 4 4 3 3 3 3 2 2 3 2 3 4 3 3 5 7 6
Wind_Direction
192 197 171 158 151 148 155 168 165 157 154 158 164 164 149 151 152 158 160 153 148 155 157 162 159 160 160 142 185 173 176 188 186 186 189 189 202 164 177 187 176 173 171 172 169 162 160 156 161 174 187 169 182 175 181 161 169 161 152 158 156 146 141 146 135 136 133 121 120 105 102 100 102 123 136 133 128 140 114 123 92 138 139 157 123
188 194 191 180 152 155 169 178 177 171 168 167 171 166 153 147 149 155 155 156 151 158 161 165 170 172 165 160 188 175 180 187 185 181 195 180 190 188 177 168 163 168 173 173 168 170 155 155 162 176 178 181 185 169 162 154 167 163 163 160 169 157 143 159 150 168 163 154 146 137 124 118 119 141 178 115 116 121 152 108 178 137 126 113 127
197 198 190 184 163 163 185 193 185 180 167 173 170 172 162 157 152 146 146 150 146 162 157 173 175 168 163 166 177 181 184 185 184 179 185 180 184 184 181 175 169 170 173 172 173 168 156 155 168 163 189 168 173 169 163 173 173 175 177 169 160 152 141 158 174 260 205 153 155 166 157 160 132 144 45 132 164 138 127 141 135 149 146 142 143
196 191 191 196 190 183 194 197 191 179 169 171 169 170 172 174 161 133 152 159 159 153 152 156 174 146 130 176 181 182 174 170 177 173 179 180 175 182 172 176 173 175 178 179 173 161 160 159 157 166 177 168 184 177 170 178 172 182 181 176 178 157 161 158 180 205 261 165 181 230 160 218 147 181 143 62 19 80 132 126 138 136 132 128 168
197 185 175 181 184 190 194 194 189 179 174 178 172 165 170 171 169 147 145 146 134 132 150 154 158 134 185 159 165 168 159 168 170 174 179 177 173 178 172 170 177 186 181 187 172 161 163 154 156 161 166 173 190 183 179 182 182 191 178 184 190 189 158 156 152 217 219 297 299 190 176 225 182 132 140 116 159 168 119 110 109 130 126 128 160
189 185 180 176 173 174 182 182 181 180 178 176 174 164 163 150 149 150 151 168 140 144 158 154 164 170 164 166 170 174 171 166 174 172 174 172 178 168 163 173 184 180 174 175 163 163 156 161 163 165 160 166 182 188 182 175 194 199 173 195 182 192 180 164 160 193 219 184 4 5 354 352 302 141 194 121 156 77 92 88 112 102 131 141 120
188 175 162 167 167 160 165 173 176 184 178 166 160 159 153 139 144 152 155 149 138 132 149 143 167 175 173 176 173 176 161 167 173 162 167 170 172 169 167 176 174 168 169 160 161 162 166 161 165 169 171 169 175 185 187 191 182 193 176 198 199 180 195 185 176 168 179 183 206 360 339 267 105 163 180 144 150 125 121 113 94 109 114 121 115
178 153 152 161 159 160 163 173 170 177 157 153 148 154 160 148 138 143 141 142 134 126 134 160 190 193 186 173 185 179 160 164 164 166 168 164 159 169 167 163 168 162 159 159 159 166 161 163 162 162 175 172 176 184 187 186 172 173 183 197 194 205 182 219 185 169 201 171 192 206 180 182 165 256 161 164 170 145 132 115 127 113 92 71 63
171 151 144 154 155 155 158 159 161 141 158 151 144 144 138 136 128 122 135 136 132 154 174 175 190 190 188 188 171 164 150 149 155 160 160 165 162 160 165 158 155 157 162 156 166 162 161 160 161 160 162 166 180 173 179 169 168 160 170 181 190 176 206 224 249 179 209 171 173 195 202 180 168 203 225 243 152 159 138 148 131 116 105 82 79
140 134 134 146 149 150 157 147 144 116 219 161 142 142 138 131 130 153 146 136 154 158 178 184 201 180 188 170 162 149 145 147 155 160 164 161 157 156 158 162 159 158 159 166 162 158 156 151 157 150 153 163 212 151 160 162 172 172 176 180 167 193 188 197 197 97 255 347 210 186 202 170 212 163 189 195 157 166 154 154 155 154 143 108 97
132 142 143 149 153 154 152 152 156 160 171 154 146 148 149 148 147 157 146 142 156 159 186 196 196 191 185 162 163 150 153 156 161 165 159 160 154 157 164 165 163 155 157 153 155 150 146 147 149 146 142 152 165 147 183 172 164 190 191 186 184 191 187 183 212 174 193 196 202 229 325 237 198 185 172 189 176 161 142 149 146 149 131 125 96
155 159 159 163 166 161 162 164 166 159 156 150 149 148 150 141 145 143 138 141 164 179 190 185 203 191 188 170 167 161 164 166 168 165 160 157 156 162 158 150 161 155 164 156 157 156 154 145 145 137 140 149 145 119 150 164 193 185 183 194 189 190 176 191 197 214 208 206 172 187 202 234 187 215 157 190 173 156 156 142 144 136 127 110 124
157 164 165 167 176 169 170 165 166 152 149 145 149 147 150 147 149 143 156 171 185 191 189 186 190 188 189 180 172 167 174 173 169 163 162 161 165 165 163 164 161 165 167 163 154 161 160 154 157 155 145 157 148 148 144 35 133 180 155 170 160 173 170 185 190 186 210 199 193 206 216 189 189 230 137 186 144 136 150 147 144 142 136 139 143
157 175 182 178 166 164 171 172 166 160 154 152 150 149 152 157 163 170 176 178 185 187 187 189 185 188 188 181 172 169 174 177 169 164 161 163 163 158 163 158 159 159 158 164 160 167 167 158 158 151 144 138 148 148 136 148 154 165 147 141 146 141 141 169 156 156 184 210 208 201 220 191 166 113 152 174 146 159 148 153 146 143 153 150 152
180 176 171 166 163 162 171 168 160 156 152 154 153 154 159 162 174 175 170 173 182 186 187 188 188 190 184 184 174 175 171 173 164 161 161 154 151 154 153 152 154 155 160 155 160 168 158 155 148 143 140 136 142 148 148 142 157 167 118 113 116 120 128 154 128 157 173 195 208 224 185 185 151 167 169 162 158 157 159 156 158 149 151 146 142
173 179 177 176 168 157 161 164 154 153 158 157 163 166 167 169 170 176 175 178 181 181 180 186 189 187 183 185 183 180 174 169 151 147 147 149 148 152 148 153 153 157 159 157 163 164 155 148 149 141 138 140 144 147 160 140 127 125 116 120 121 124 128 130 131 152 170 181 193 197 197 163 162 153 170 142 163 137 156 157 168 161 149 145 152
155 165 165 169 161 165 159 159 162 155 164 164 169 171 168 163 169 180 183 177 170 181 178 181 182 181 179 184 185 180 175 166 153 146 140 145 153 154 155 157 149 161 156 161 162 160 154 153 146 137 140 140 137 139 133 122 127 118 115 121 118 122 117 109 107 120 122 173 166 182 196 144 158 149 154 140 126 155 147 153 160 152 161 152 151
145 150 143 149 160 161 171 177 164 158 166 171 173 174 158 163 167 178 182 178 179 180 184 180 177 182 176 182 182 179 178 168 156 154 152 158 161 161 155 153 165 162 161 161 163 156 152 154 146 148 148 150 150 145 134 125 128 115 112 114 106 113 115 115 121 121 130 137 139 174 163 150 132 160 135 140 138 146 143 154 170 148 167 160 157
140 141 138 146 154 162 172 168 171 169 171 178 176 168 162 159 167 176 181 179 176 179 184 189 185 179 178 179 183 178 179 170 160 158 160 168 170 168 165 163 167 169 166 162 165 160 158 156 152 153 154 155 157 147 141 139 131 122 121 116 122 130 113 113 107 116 126 138 145 147 154 132 144 138 141 148 137 143 149 146 108 76 50 96 156
143 141 142 130 140 139 147 154 166 162 180 180 179 168 158 167 171 175 174 175 175 181 182 190 185 179 175 177 183 181 180 173 165 165 165 168 166 176 168 167 167 168 162 164 166 162 162 158 156 152 154 155 157 159 157 141 145 137 144 134 126 144 132 128 127 140 143 135 133 139 136 134 143 148 147 143 147 149 150 117 117 113 100 85 114
143 119 105 97 106 100 131 164 155 160 182 188 170 151 161 181 181 173 171 173 177 186 186 187 181 180 176 176 182 186 184 175 170 170 171 174 177 184 173 169 162 168 162 168 168 166 165 162 156 159 155 154 153 161 159 155 150 146 136 131 148 149 139 123 122 128 132 135 126 126 131 131 147 146 143 149 149 148 147 119 102 112 119 125 127
62 65 76 90 80 86 71 119 167 170 182 186 159 159 184 194 184 178 178 178 178 188 188 186 187 181 180 177 175 181 182 173 168 169 172 170 172 177 168 167 171 169 174 172 174 171 168 168 162 159 156 151 155 154 163 161 151 142 138 149 149 151 126 119 122 107 109 116 125 122 127 130 145 140 144 150 150 160 165 149 137 132 122 131 201
47 62 72 81 109 92 73 93 155 171 168 183 178 183 189 193 190 189 190 182 182 188 188 191 191 187 187 181 177 175 177 170 167 171 173 172 169 169 168 172 174 171 180 181 178 176 175 171 165 160 158 155 152 149 153 152 143 148 144 141 142 132 132 131 125 115 106 107 119 122 129 128 130 137 151 143 157 176 175 156 141 160 143 154 171
46 60 60 53 38 118 127 89 73 64 23 4 287 205 235 198 193 187 200 184 179 187 191 199 198 191 189 186 183 179 175 169 169 172 172 169 167 167 172 174 174 171 177 181 174 181 177 176 168 164 159 160 152 150 150 150 148 139 140 138 133 132 136 131 123 122 112 113 105 119 122 132 138 145 146 145 175 141 193 180 182 143 202 209 217
55 61 70 72 77 84 99 106 98 88 133 64 36 42 29 44 360 59 44 4 213 188 198 201 201 194 190 188 183 172 169 168 173 173 171 170 167 168 168 177 171 174 172 169 172 179 176 178 173 171 164 162 158 157 151 146 138 143 130 134 138 129 127 120 110 101 111 111 124 118 132 137 153 160 159 178 165 174 205 221 222 237 210 202 212
74 78 80 72 63 58 64 73 81 86 68 50 50 43 12 217 123 104 123 133 61 335 230 204 199 197 179 161 125 103 130 189 180 178 172 169 167 164 165 174 174 173 168 174 172 174 181 173 179 174 164 163 160 156 155 153 146 143 137 125 128 137 132 127 126 125 114 114 127 131 138 157 164 180 186 186 204 194 214 224 225 238 228 181 213
78 79 81 79 69 62 60 64 79 91 94 90 88 105 103 99 122 139 145 146 123 132 244 215 165 188 121 84 85 110 132 91 45 51 156 171 169 163 166 169 172 167 166 174 171 171 177 181 187 170 165 162 155 158 154 155 153 153 146 140 138 139 137 123 132 128 127 126 136 136 147 162 191 190 188 201 201 216 225 239 243 234 255 229 210
76 74 69 66 63 58 49 42 49 58 57 64 78 84 82 103 94 90 116 138 135 137 175 194 137 94 106 148 155 159 158 141 129 116 42 116 154 164 164 158 164 163 171 177 168 174 172 191 170 171 157 151 152 160 157 163 161 154 149 149 146 150 148 144 141 139 133 143 137 146 163 162 193 195 213 203 213 221 214 233 220 232 239 235 226
74 71 69 68 65 59 58 57 56 61 59 52 42 48 83 86 68 68 66 73 77 106 108 98 127 148 162 139 120 123 104 106 110 116 128 119 104 113 127 138 152 151 164 168 170 168 169 169 160 178 160 154 166 160 165 171 165 152 152 151 147 157 164 163 171 164 161 172 176 147 198 169 44 27 18 1 2 359 307 261 221 224 242 237 239
57 61 68 61 61 60 60 50 44 46 52 58 54 46 35 42 67 74 72 75 97 111 111 112 114 127 148 158 156 147 139 131 132 135 121 110 105 108 117 116 114 131 142 150 153 155 157 163 166 159 132 150 167 163 48 21 359 344 167 163 165 172 182 177 186 186 181 201 198 190 158 73 57 35 352 332 336 326 328 336 325 297 256 241 239
69 67 64 60 52 46 49 50 47 47 51 55 58 55 50 49 44 42 47 58 80 106 107 108 109 123 145 159 164 163 142 133 128 124 114 114 102 77 65 92 98 89 104 120 147 161 161 151 166 176 166 164 170 105 73 35 10 347 327 186 192 182 184 187 191 200 204 199 214 220 207 151 170 198 208 201 273 311 310 320 321 314 327 322 273
61 60 57 55 51 46 45 44 46 49 50 51 53 54 57 54 48 47 52 61 62 64 76 94 108 118 129 136 132 104 116 108 115 125 141 127 106 77 34 67 86 102 99 105 116 117 125 134 152 167 159 166 156 88 116 112 54 343 339 302 213 198 195 205 207 213 214 211 211 213 230 225 226 230 236 186 196 211 269 303 291 311 309 310 344
62 64 62 51 47 46 44 43 45 46 52 56 57 58 54 55 59 55 57 59 62 64 65 69 87 111 121 130 134 129 135 152 152 141 125 137 141 133 180 134 102 102 109 105 95 144 187 153 199 181 170 179 157 87 122 130 123 82 333 311 241 216 217 210 218 221 231 231 221 220 226 227 235 135 240 243 234 190 173 196 274 244 259 276 289
62 63 64 60 49 42 45 48 47 43 47 56 62 67 58 48 58 60 62 64 67 63 62 53 39 38 94 105 113 126 128 129 147 145 145 148 141 134 136 136 138 140 118 130 165 182 178 166 169 165 174 178 98 93 93 88 93 86 46 300 265 258 248 241 233 232 233 239 239 245 247 235 236 220 238 247 248 248 212 204 218 228 233 185 211
63 60 59 54 49 42 42 45 43 38 37 48 53 60 66 64 62 66 64 66 63 64 60 52 47 42 63 86 99 110 116 129 134 129 140 155 153 135 135 143 148 140 147 165 178 164 150 153 162 182 174 111 74 123 123 132 133 150 162 256 243 245 240 236 237 238 245 251 254 257 260 266 265 255 245 239 254 254 255 251 250 239 237 236 227
58 62 56 52 48 42 36 36 37 44 43 43 44 49 62 63 61 63 66 68 67 62 58 56 53 42 42 52 74 88 90 100 114 122 118 120 131 130 126 131 126 119 130 154 147 141 134 145 152 164 163 102 76 35 99 122 135 161 220 236 232 239 246 242 239 235 233 238 238 242 251 251 257 259 187 168 242 272 269 262 255 250 245 225 93
65 61 65 57 52 45 32 30 36 42 44 41 42 47 56 58 57 57 62 62 60 56 49 51 52 50 53 54 53 59 70 84 100 104 100 96 92 90 104 123 126 135 151 153 138 138 166 155 160 160 168 104 85 40 36 95 127 228 247 246 233 242 240 242 243 244 239 240 240 240 250 259 254 259 152 180 205 239 256 258 252 244 236 224 165
69 61 53 49 49 51 41 36 39 41 36 36 44 54 59 54 50 50 57 59 57 50 41 39 38 41 48 52 51 57 62 64 66 84 95 98 101 103 91 97 107 111 119 119 118 101 67 71 73 52 9 99 82 56 341 347 248 224 285 279 249 254 248 246 243 232 244 234 230 151 247 259 261 255 147 190 193 212 242 245 245 236 226 221 158
59 53 47 40 39 46 47 41 43 49 40 36 39 55 62 58 49 48 49 54 56 55 48 43 39 36 38 41 45 48 53 57 62 64 73 80 81 80 77 76 94 99 89 79 66 108 117 102 83 81 350 41 90 94 55 28 322 314 300 264 261 252 250 251 255 245 229 240 233 171 199 240 268 26 162 187 192 208 233 242 240 234 229 225 181
65 60 59 48 26 43 49 43 42 45 44 41 46 58 59 58 55 54 53 50 46 49 54 55 53 51 50 48 44 46 46 49 52 53 47 51 61 70 68 77 73 81 86 93 97 98 94 83 88 89 76 67 77 68 57 16 16 350 343 311 286 273 272 266 261 274 275 267 249 248 183 200 270 339 235 208 204 215 240 251 246 238 228 232 182
76 69 63 60 50 46 44 41 34 37 40 42 47 58 62 57 54 56 50 45 41 39 42 44 49 53 53 52 54 56 58 58 58 64 67 70 68 69 70 72 67 52 63 66 72 75 80 85 83 87 88 76 62 65 63 22 30 14 354 321 331 7 344 349 333 324 306 283 272 289 81 77 101 237 241 225 235 237 258 287 276 262 263 247 165
72 75 79 75 67 63 57 50 37 33 37 44 47 53 55 54 53 53 46 40 36 36 38 40 44 47 46 47 46 42 47 52 52 64 78 83 86 95 109 113 112 112 108 105 105 104 100 91 87 84 90 81 57 38 36 54 19 17 4 349 344 33 1 321 243 208 251 266 303 296 51 83 118 204 220 216 237 257 271 269 317 357 357 134 172
88 81 75 78 76 64 55 47 34 32 31 36 47 54 54 53 54 50 49 46 41 39 40 41 38 38 38 39 40 38 37 32 34 40 52 59 61 63 62 68 100 114 104 100 103 115 127 130 120 105 95 95 100 80 31 58 58 37 28 356 347 325 336 292 299 307 291 304 320 40 100 95 116 198 206 204 204 194 188 238 297 336 300 184 180
95 90 87 86 83 77 71 58 49 44 42 44 49 55 51 53 47 34 37 39 45 49 51 49 42 38 40 39 40 38 30 29 28 30 40 45 42 46 50 49 40 49 71 82 86 99 105 96 95 100 106 108 117 108 91 61 64 69 44 17 343 305 292 313 321 311 345 359 359 5 21 31 271 223 208 195 185 183 194 175 166 170 217 231 223
87 89 89 81 82 87 87 83 71 62 54 49 50 54 54 52 41 33 37 35 37 42 46 54 57 59 60 63 54 50 49 41 40 38 42 44 42 33 47 42 47 51 54 61 63 56 61 75 72 56 54 59 48 66 90 109 108 109 90 20 345 329 332 298 287 330 6 11 36 23 19 261 201 211 183 184 174 186 165 160 146 132 133 217 291
100 94 85 87 94 86 79 75 68 62 61 56 51 49 49 44 38 37 36 43 45 48 47 48 54 51 48 61 69 68 60 54 51 55 50 54 49 48 42 41 39 40 39 40 40 39 43 39 38 35 27 24 33 24 30 41 43 22 58 73 311 275 307 318 290 324 10 12 26 30 82 187 201 185 195 217 224 164 183 167 154 152 162 169 181
74 58 55 71 71 71 67 62 57 46 42 41 41 43 43 41 35 36 45 51 57 56 59 56 59 68 62 55 52 51 65 61 51 50 54 44 43 48 51 45 42 38 45 45 40 34 31 30 23 22 12 360 10 17 20 17 10 1 353 347 339 329 199 220 246 225 189 210 122 6 24 28 19 32 16 27 44 87 150 181 183 188 187 179 178
77 76 69 67 66 69 66 62 57 46 40 35 34 32 31 27 32 37 48 53 48 42 63 69 67 65 64 71 74 34 40 70 54 48 47 48 52 54 51 42 29 21 17 27 33 33 24 16 5 5 359 356 11 35 30 7 356 351 339 332 328 324 338 349 335 332 330 334 352 131 151 171 140 171 116 197 183 214 242 237 225 210 194 173 131
86 76 73 77 81 77 73 66 57 49 44 47 43 41 36 33 33 40 43 57 71 78 75 77 77 77 75 70 68 67 70 77 80 67 55 36 22 31 66 65 40 32 21 4 4 27 13 1 345 354 351 344 353 23 27 358 325 320 315 324 329 331 337 316 28 18 314 282 242 235 220 209 213 222 223 209 205 213 240 238 228 217 192 168 161
103 102 97 94 87 82 74 64 61 50 49 48 51 51 44 42 40 46 61 78 86 85 78 71 69 71 74 78 76 78 75 80 90 97 94 80 57 41 25 52 86 60 28 17 7 23 3 341 334 4 25 343 350 358 349 329 322 321 319 306 292 289 285 280 292 297 279 272 252 244 242 239 232 226 237 237 219 206 207 212 219 209 195 189 186
89 96 84 79 80 76 70 61 53 49 54 59 58 57 59 50 50 46 45 73 89 85 81 79 74 64 33 56 73 70 68 71 68 72 96 115 115 91 86 75 69 77 46 11 21 8 3 1 357 354 36 141 315 329 325 320 319 317 318 318 320 313 302 291 271 246 224 237 263 264 257 252 263 269 273 285 274 248 229 222 207 189 203 206 200